EW5295 Weather Reports


time (UTC)temp
C
wind
direction
speed
KPH
gust
KPH
rain 1hr
cm
rain 24hr
cm
rain mn
cm
humidity
%
barometer
mb
20260509094517 10 143 0.0 1.6 0.00 0.00 0.00 91 1020.8
20260509093016 10 153 0.0 3.2 0.00 0.00 0.00 91 1021.0
20260509091507 9 96 0.0 0.0 0.00 0.00 0.00 90 1021.1
20260509090003 9 96 0.0 0.0 0.00 0.00 0.00 90 1021.1
20260509084619 10 96 0.0 0.0 0.00 0.00 0.00 90 1021.3
20260509083059 10 96 0.0 1.6 0.00 0.00 0.00 90 1021.4
20260509081558 10 167 0.0 0.0 0.00 0.00 0.00 88 1021.5
20260509080057 10 167 0.0 0.0 0.00 0.00 0.00 87 1021.6
20260509074556 10 167 0.0 0.0 0.00 0.00 0.00 85 1021.8
20260509073034 11 167 0.0 0.0 0.00 0.00 0.00 85 1021.7
20260509071532 11 167 0.0 0.0 0.00 0.00 0.00 84 1021.7
20260509070019 11 167 0.0 0.0 0.00 0.00 0.00 85 1021.7
20260509064520 11 167 0.0 0.0 0.00 0.00 0.00 85 1021.6
20260509063017 11 167 0.0 0.0 0.00 0.00 0.00 83 1021.7
20260509061514 11 167 0.0 0.0 0.00 0.00 0.00 81 1021.6
20260509060012 12 167 0.0 0.0 0.00 0.00 0.00 80 1021.5
20260509054521 12 167 0.0 0.0 0.00 0.00 0.00 79 1021.5
20260509053013 13 167 0.0 0.0 0.00 0.00 0.00 78 1021.5
20260509051504 13 167 0.0 0.0 0.00 0.00 0.00 77 1021.4
20260509050050 13 167 0.0 0.0 0.00 0.00 0.00 76 1021.2
20260509044549 13 167 0.0 1.6 0.00 0.00 0.00 74 1021.1
20260509043043 14 148 0.0 3.2 0.00 0.00 0.00 71 1021.0
20260509041540 15 156 0.0 1.6 0.00 0.00 0.00 69 1020.9
20260509040036 15 163 0.0 3.2 0.00 0.00 0.00 66 1020.8
20260509034535 16 152 0.0 1.6 0.00 0.00 0.00 65 1020.7
20260509033033 16 150 0.0 0.0 0.00 0.00 0.00 64 1020.5
20260509031531 16 151 0.0 6.4 0.00 0.00 0.00 62 1020.5
20260509030030 16 159 0.0 0.0 0.00 0.00 0.00 62 1020.4
20260509024517 17 160 0.0 3.2 0.00 0.00 0.00 60 1020.3
20260509023023 17 168 0.0 1.6 0.00 0.00 0.00 58 1020.1
20260509021512 17 168 0.0 3.2 0.00 0.00 0.00 57 1020.1
20260509020008 18 105 0.0 1.6 0.00 0.00 0.00 56 1020.1
20260509014507 18 153 0.0 1.6 0.00 0.00 0.00 56 1020.2
20260509013006 18 106 0.0 1.6 0.00 0.00 0.00 56 1020.1
20260509011505 18 135 0.0 1.6 0.00 0.00 0.00 55 1020.3
20260509010104 18 141 0.0 1.6 0.00 0.00 0.00 53 1020.5
20260509004552 18 146 0.0 6.4 0.00 0.00 0.00 53 1020.4
20260509003112 19 135 0.0 4.8 0.00 0.00 0.00 53 1020.4
20260509001552 19 134 0.0 3.2 0.00 0.00 0.00 53 1020.5
20260509000105 19 141 0.0 1.6 0.00 0.00 0.00 53 1020.5
20260508234548 19 139 0.0 3.2 0.00 0.00 0.00 54 1020.7
20260508233048 19 212 0.0 1.6 0.00 0.00 0.00 51 1020.6
20260508231550 19 162 0.0 1.6 0.00 0.00 0.00 49 1020.6
20260508230044 20 139 0.0 1.6 0.00 0.00 0.00 52 1020.6
20260508224520 20 127 0.0 1.6 0.00 0.00 0.00 51 1020.7
20260508223019 19 305 0.0 1.6 0.00 0.00 0.00 54 1020.7
20260508221552 19 228 0.0 4.8 0.00 0.00 0.00 51 1020.8
20260508220052 19 74 0.0 4.8 0.00 0.00 0.00 55 1020.8
20260508214553 19 146 0.0 3.2 0.00 0.00 0.00 54 1020.8
20260508213046 18 337 0.0 1.6 0.00 0.00 0.00 55 1020.8
20260508211545 17 176 0.0 3.2 0.00 0.00 0.00 58 1020.8
20260508210046 17 107 0.0 1.6 0.00 0.00 0.00 54 1020.9
20260508204542 17 259 0.0 3.2 0.00 0.00 0.00 59 1020.9
20260508203049 16 163 0.0 3.2 0.00 0.00 0.00 57 1020.9
20260508201608 16 172 0.0 0.0 0.00 0.00 0.00 61 1021.0
20260508194558 16 143 0.0 1.6 0.00 0.00 0.00 60 1021.0
20260508193053 16 126 0.0 1.6 0.00 0.00 0.00 60 1021.2
20260508184525 15 105 0.0 3.2 0.00 0.00 0.00 64 1021.2
20260508183019 14 139 0.0 1.6 0.00 0.00 0.00 66 1021.2
20260508171545 12 198 0.0 3.2 0.00 0.00 0.00 71 1020.7
20260508163115 11 174 0.0 1.6 0.00 0.00 0.00 78 1020.0
20260508163037 11 175 0.0 1.6 0.00 0.00 0.00 77 1020.0
20260508161515 11 136 0.0 1.6 0.00 0.00 0.00 78 1020.0
20260508160024 11 136 0.0 1.6 0.00 0.00 0.00 79 1020.1
20260508151549 10 214 0.0 3.2 0.00 0.00 0.00 81 1019.5
20260508144513 9 137 0.0 0.0 0.00 0.00 0.00 82 1019.7
20260508141535 9 153 0.0 0.0 0.00 0.00 0.00 87 1019.7
20260508134533 -17 0.0 0.0 0.00 0.00 0.00 1018.9
20260508133025 -17 0.0 0.0 0.00 0.00 0.00 1018.8
20260508124509 8 128 0.0 0.0 0.00 0.00 0.00 88 1017.9
20260508120027 9 128 0.0 0.0 0.00 0.00 0.00 87 1017.5
20260508114600 9 128 0.0 0.0 0.00 0.00 0.00 86 1017.5
20260508113010 9 128 0.0 0.0 0.00 0.00 0.00 86 1017.3
20260508110045 10 128 0.0 0.0 0.00 0.00 0.00 86 1016.8
20260508110008 10 128 0.0 0.0 0.00 0.00 0.00 86 1016.8
20260508104539 10 128 0.0 0.0 0.00 0.00 0.00 86 1016.7
20260508101523 10 128 0.0 0.0 0.00 0.00 0.00 85 1016.6
20260508100043 10 128 0.0 0.0 0.00 0.00 0.00 85 1016.5